Location: Jackson Park
(37.2862°N, 79.9123°W)
Time: 19:51:24
(UTC+00:00)

S-56A Canister/Altair - Pass Details

Date: 16 May 2026
Orbit: 633 x 2484 km, 38.9° (Epoch: 6 June)

Event Time Altitude Azimuth Distance (km) Brightness Sun altitude
Rises 07:57:40 0° 275° (W) 3,376 - -22.0°
Reaches altitude 10° 08:00:26 10° 260° (W) 2,643 - -21.6°
Maximum altitude 08:05:10 22° 211° (SSW) 2,263 - -21.0°
Exits shadow 08:08:57 16° 177° (S) 2,915 10.1 -20.4°
Drops below altitude 10° 08:11:20 10° 165° (SSE) 3,550 10.6 -20.1°
Sets 08:15:50 0° 152° (SSE) 4,899 11.5 -19.5°
